This is the latest recevied weather packets stored in our database for station/object SP2FH-13. If no packets are shown the sender has not sent any weather packets the latest 1 day(s).
| Time | Temp. | Humidity | Pressure | Rain* | Wind** | Luminosity | Snow |
|---|---|---|---|---|---|---|---|
| 1778055577 | 17.22° C | 58% | 994.1 hPa | - | - | 597 W/m² | - |
| 1778055275 | 16.67° C | 60% | 994 hPa | - | - | 571 W/m² | - |
| 1778054974 | 17.22° C | 59% | 993.9 hPa | - | - | 556 W/m² | - |
| 1778054673 | 17.22° C | 59% | 993.8 hPa | - | - | 541 W/m² | - |
| 1778054372 | 17.22° C | 59% | 993.8 hPa | - | - | 525 W/m² | - |
| 1778054071 | 17.22° C | 59% | 993.7 hPa | - | - | 513 W/m² | - |
| 1778053770 | 16.67° C | 59% | 993.7 hPa | - | - | 505 W/m² | - |
| 1778052564 | 16.11° C | 60% | 993.7 hPa | - | - | 495 W/m² | - |
| 1778052264 | 16.11° C | 61% | 993.6 hPa | - | - | 503 W/m² | - |
| 1778051962 | 15.56° C | 62% | 993.6 hPa | - | - | 475 W/m² | - |
| 1778051661 | 15.56° C | 63% | 993.6 hPa | - | - | 463 W/m² | - |
| 1778051360 | 15° C | 65% | 993.6 hPa | - | - | 201 W/m² | - |
| 1778050757 | 14.44° C | 66% | 993.5 hPa | - | - | 195 W/m² | - |
| 1778050457 | 13.89° C | 66% | 993.6 hPa | - | - | 271 W/m² | - |
| 1778050156 | 13.89° C | 67% | 993.8 hPa | - | - | 227 W/m² | - |
| 1778049854 | 13.89° C | 68% | 993.9 hPa | - | - | 217 W/m² | - |
| 1778049553 | 13.89° C | 68% | 993.8 hPa | - | - | 204 W/m² | - |
| 1778049252 | 13.89° C | 67% | 994 hPa | - | - | 213 W/m² | - |
| 1778048349 | 13.33° C | 68% | 993.9 hPa | - | - | 252 W/m² | - |
| 1778048047 | 13.33° C | 68% | 994 hPa | - | - | 228 W/m² | - |
| 1778047746 | 12.78° C | 70% | 994.2 hPa | - | - | 316 W/m² | - |
| 1778046542 | 12.78° C | 70% | 994.4 hPa | - | - | 177 W/m² | - |
| 1778046240 | 12.78° C | 70% | 994.4 hPa | - | - | 198 W/m² | - |
| 1778045638 | 12.78° C | 70% | 994.7 hPa | - | - | 207 W/m² | - |
| 1778045336 | 12.78° C | 71% | 994.6 hPa | - | - | 144 W/m² | - |
* Rain since midnight (hover to see other rain measurements)
** Current wind speed in m/s (hover to see current wind gust speed)